Windsor Heights, WV

5:06 PM EST on February 14, 2016 (GMT -0500)
Wheeling-Ohio County

Weather History for KHLG - October, 2012

Change the Weather History Date:

Wednesday, October 17, 2012

  Actual Average Record
Temperature  
Mean Temperature 59 °F 53 °F  
Max Temperature 72 °F 62 °F 78 °F (1950)
Min Temperature 45 °F 43 °F 32 °F (1952)
Degree Days  
Heating Degree Days 6 12  
Month to date heating degree days 191 168  
Since 1 July heating degree days 316 269  
Cooling Degree Days 0    
Month to date cooling degree days 9  
Year to date cooling degree days 983  
Growing Degree Days 9 (Base 50)    
Moisture  
Dew Point 41 °F    
Average Humidity 56    
Maximum Humidity 71    
Minimum Humidity 40    
Precipitation  
Precipitation 0.00 in 0.08 in 1.61 in (2006)
Month to date precipitation 0.47 1.42  
Sea Level Pressure  
Sea Level Pressure 29.85 in    
Wind  
Wind Speed 8 mph (SSE)    
Max Wind Speed 15 mph    
Max Gust Speed 21 mph    
Visibility 10 miles    
Events      
T = Trace of Precipitation, MM = Missing Value Source: NWS Daily Summary

Daily Weather History Graph

Daily Weather History Graph

Search for Another Location

Airport or City:

Trip Planner

Search our weather history database for the weather conditions in past years. The results will help you decide how hot, cold, wet, or windy it might be!

Date:

Astronomy

Oct. 17, 2012 Rise Set
Actual Time 7:35 AM EDT 6:39 PM EDT
Civil Twilight 7:08 AM EDT 7:06 PM EDT
Nautical Twilight 6:36 AM EDT 7:38 PM EDT
Astronomical Twilight 6:05 AM EDT 8:09 PM EDT
Moon 10:08 AM EDT (10/17) 8:13 PM EDT (10/17)
Length of Visible Light 11h 58m
Length of Day
11h 03m
Waxing Crescent, 7% of the Moon is Illuminated
Oct 17
Waxing Crescent
Oct 21
First Quarter
Oct 29
Full
Nov 6
Last Quarter
Nov 13
New

Hourly Weather History & Observations

Time (EDT) Temp. Windchill Dew Point Humidity Pressure Visibility Wind Dir Wind Speed Gust Speed Precip Events Conditions
12:53 AM 46.9 °F - 37.9 °F 71% 29.91 in 10.0 mi Calm Calm - N/A   Clear
1:53 AM 46.0 °F 43.9 °F 37.9 °F 73% 29.91 in 10.0 mi ESE 4.6 mph - N/A   Clear
2:53 AM 46.9 °F - 37.9 °F 71% 29.92 in 10.0 mi Calm Calm - N/A   Clear
3:53 AM 46.9 °F - 37.0 °F 68% 29.90 in 10.0 mi SE 5.8 mph - N/A   Clear
4:53 AM 46.9 °F - 37.0 °F 68% 29.90 in 10.0 mi SE 4.6 mph - N/A   Clear
5:53 AM 46.0 °F 43.9 °F 37.0 °F 71% 29.91 in 10.0 mi SSE 4.6 mph - N/A   Partly Cloudy
6:53 AM 46.0 °F 43.1 °F 37.0 °F 71% 29.90 in 10.0 mi SSE 5.8 mph - N/A   Mostly Cloudy
7:53 AM 48.0 °F - 37.0 °F 66% 29.91 in 10.0 mi SSE 9.2 mph - N/A   Overcast
8:53 AM 50.0 °F - 39.0 °F 66% 29.92 in 10.0 mi SE 5.8 mph - N/A   Mostly Cloudy
9:53 AM 55.0 °F - 39.9 °F 57% 29.92 in 10.0 mi South 6.9 mph - N/A   Mostly Cloudy
10:53 AM 60.1 °F - 39.9 °F 47% 29.91 in 10.0 mi South 11.5 mph - N/A   Clear
11:53 AM 63.0 °F - 39.9 °F 43% 29.89 in 10.0 mi South 8.1 mph - N/A   Clear
12:53 PM 66.0 °F - 41.0 °F 40% 29.87 in 10.0 mi South 11.5 mph - N/A   Clear
1:53 PM 69.1 °F - 44.1 °F 40% 29.84 in 10.0 mi SSW 11.5 mph - N/A   Clear
2:53 PM 71.1 °F - 46.0 °F 41% 29.82 in 10.0 mi South 5.8 mph - N/A   Clear
3:53 PM 72.0 °F - 46.9 °F 41% 29.81 in 10.0 mi SSW 9.2 mph - N/A   Clear
4:53 PM 71.1 °F - 48.0 °F 44% 29.79 in 10.0 mi South 8.1 mph - N/A   Clear
5:53 PM 68.0 °F - 46.0 °F 45% 29.79 in 10.0 mi SSE 9.2 mph - N/A   Clear
7:53 PM 61.0 °F - 46.0 °F 58% 29.78 in 10.0 mi ESE 8.1 mph - N/A   Clear
8:53 PM 59.0 °F - 45.0 °F 60% 29.78 in 10.0 mi SE 8.1 mph - N/A   Clear
9:53 PM 60.1 °F - 43.0 °F 53% 29.77 in 10.0 mi ESE 11.5 mph - N/A   Clear
10:53 PM 60.1 °F - 39.0 °F 46% 29.76 in 10.0 mi SE 11.5 mph - N/A   Clear
11:53 PM 59.0 °F - 37.9 °F 46% 29.74 in 10.0 mi SSE 11.5 mph - N/A   Clear